Flag for Canada Weather past 2 weeks in Moose Jaw, Saskatchewan, Canada

Now
64 °F

Clear.


Feels Like: 64 °F
Forecast: 51 / 79 °F
Wind: 10 mph from Northeast

Location: Regina Weather Station

Current Time: May 27, 2015 at 12:45:32 AM

Latest Report: May 27, 2015 at 12:00 AM


Visibility: 15 mi

Pressure: 29.88 "Hg

Humidity: 56%

Dew point: 48 °F

Location of Moose JawLocation

Historic Weather in Moose Jaw — Graph

°F

Moose Jaw temperature yesterday

Maximum temperature yesterday: 82 °F (at 2:00 PM)
Minimum temperature yesterday: 52 °F (at 4:00 AM)
Average temperature yesterday: 68 °F

Past Weeks' High & Low Weather Summary

 TemperatureHumidityPressure
High82 °F (May 26, 2:00 PM)93% (May 13, 4:00 AM)30.56 "Hg (May 13, 4:00 AM)
Low25 °F (May 18, 2:00 AM)15% (May 21, 2:00 PM)29.82 "Hg (May 25, 8:00 PM)
Average55 °F49%30.13 "Hg
* Reported May 11 11:00 PM — May 26 11:00 PM, Moose Jaw, Weather by CustomWeather, © 2015

Note: Actual official high and low records may vary slightly from our data, if they occured in-between our weather recording intervals... More about our weather records

Advertising

Moose Jaw weather history for previous 24 hours

 ConditionsComfort  
Time TempWeatherWind HumidityBarometerVisibility
11:00 PM
Tue, May 26
66 °FPassing clouds.10 mph49%29.87 "Hg15 mi
10:00 PM64 °FPartly cloudy.10 mph43%29.86 "Hg15 mi
9:00 PM68 °FPartly cloudy.8 mph38%29.85 "Hg15 mi
8:00 PM73 °FPartly sunny.13 mph33%29.83 "Hg15 mi
7:00 PM77 °FPartly sunny.12 mph26%29.83 "Hg15 mi
6:00 PM77 °FPartly sunny.5 mph28%29.85 "Hg15 mi
5:00 PM79 °FBroken clouds.10 mph24%29.85 "Hg15 mi
4:00 PM81 °FPartly sunny.7 mph23%29.84 "Hg15 mi
3:00 PM79 °FPartly sunny.18 mph24%29.84 "Hg15 mi
2:00 PM82 °FPartly sunny.9 mph19%29.84 "Hg15 mi
1:00 PM81 °FPartly sunny.13 mph21%29.85 "Hg15 mi
12:00 PM79 °FPassing clouds.8 mph26%29.86 "Hg15 mi
11:00 AM79 °FPassing clouds.7 mph30%29.87 "Hg15 mi
10:00 AM75 °FPassing clouds.10 mph39%29.87 "Hg15 mi
9:00 AM72 °FPassing clouds.10 mph47%29.88 "Hg15 mi
8:00 AM64 °FPassing clouds.8 mph60%29.89 "Hg15 mi
7:00 AM59 °FScattered clouds.2 mph72%29.90 "Hg15 mi
6:00 AM52 °FPassing clouds.No wind77%29.90 "Hg15 mi
5:00 AM52 °FPassing clouds.6 mph72%29.88 "Hg15 mi
4:00 AM52 °FPassing clouds.8 mph72%29.87 "Hg15 mi
3:00 AM54 °FClear.9 mph67%29.86 "Hg15 mi
2:00 AM55 °FClear.10 mph59%29.85 "Hg15 mi
1:00 AM55 °FClear.8 mph51%29.86 "Hg15 mi
12:00 AM57 °FClear.8 mph51%29.85 "Hg15 mi
Weather by CustomWeather, © 2015

See weather overviewHow to use our weather pages